This is the latest recevied weather packets stored in our database for station/object KF0EZB. If no packets are shown the sender has not sent any weather packets the latest 10 day(s).
| Time | Temp. | Humidity | Pressure | Rain* | Wind** | Luminosity | Snow |
|---|---|---|---|---|---|---|---|
| 1777833019 | 29.44° C | 19% | 1011.2 hPa | 0 mm | - | 713 W/m² | - |
| 1777832718 | 29.44° C | 19% | 1011.4 hPa | 0 mm | - | 755 W/m² | - |
| 1777832415 | 29.44° C | 19% | 1011.4 hPa | 0 mm | - | 759 W/m² | - |
| 1777832112 | 28.89° C | 19% | 1011.4 hPa | 0 mm | - | 776 W/m² | - |
| 1777831808 | 29.44° C | 19% | 1011.6 hPa | 0 mm | - | 754 W/m² | - |
| 1777831506 | 28.89° C | 19% | 1011.7 hPa | 0 mm | - | 794 W/m² | - |
| 1777831203 | 28.89° C | 19% | 1011.6 hPa | 0 mm | - | 771 W/m² | - |
| 1777830901 | 28.89° C | 20% | 1012.2 hPa | 0 mm | - | 737 W/m² | - |
| 1777830597 | 28.89° C | 19% | 1012.3 hPa | 0 mm | - | 710 W/m² | - |
| 1777830295 | 28.89° C | 19% | 1012.4 hPa | 0 mm | - | 712 W/m² | - |
| 1777829990 | 28.89° C | 20% | 1012.3 hPa | 0 mm | - | 713 W/m² | - |
| 1777829686 | 28.33° C | 19% | 1012.5 hPa | 0 mm | - | 750 W/m² | - |
| 1777829383 | 28.33° C | 19% | 1012.3 hPa | 0 mm | - | 766 W/m² | - |
| 1777829080 | 28.33° C | 19% | 1012.4 hPa | 0 mm | - | 772 W/m² | - |
| 1777828777 | 27.78° C | 20% | 1012.5 hPa | 0 mm | - | 750 W/m² | - |
| 1777828473 | 27.78° C | 20% | 1012.8 hPa | 0 mm | - | 717 W/m² | - |
| 1777828171 | 27.78° C | 18% | 1012.8 hPa | 0 mm | - | 722 W/m² | - |
| 1777827867 | 27.78° C | 19% | 1012.7 hPa | 0 mm | - | 697 W/m² | - |
| 1777827564 | 27.78° C | 20% | 1012.8 hPa | 0 mm | - | 731 W/m² | - |
| 1777827262 | 27.78° C | 21% | 1012.8 hPa | 0 mm | - | 762 W/m² | - |
| 1777826957 | 27.78° C | 20% | 1012.9 hPa | 0 mm | - | 783 W/m² | - |
| 1777826655 | 27.78° C | 20% | 1013 hPa | 0 mm | - | 764 W/m² | - |
| 1777826351 | 27.78° C | 19% | 1013 hPa | 0 mm | - | 770 W/m² | - |
| 1777826049 | 27.22° C | 21% | 1012.8 hPa | 0 mm | - | 737 W/m² | - |
| 1777825746 | 27.22° C | 20% | 1012.8 hPa | 0 mm | - | 704 W/m² | - |
* Rain latest hour (hover to see other rain measurements)
** Current wind speed in m/s (hover to see current wind gust speed)